[[{"header":{"parameterUnit":"m.s-1","parameterCategory":1,"la1":30.2991,"la2":30.254,"lo1":-89.0895,"lo2":-89.0444,"dy":0.0017,"dx":0.0017,"nx":28,"ny":28,"refTime":"2024-07-12T09:00:00:Z","depth":0,"parameterNumber":2,"parameterNumberName":"U-component_of_WINDS"},"data":[0,0,0,0,0,0,0,0,0,0,0,0,0,0,0,0,0,0,0,0,0,0,0,0,0,0,0,0,0,0,0,0,0,0,0,0,0,0,0,0,0,0,0,0,0,0,0,0,0,0,0,0,0,0,0,0,0,0,2.7228,2.7229,0,2.7346,2.7347,2.7348,2.7324,2.7322,2.732,2.7318,2.744,2.7445,2.745,0,0,0,0,0,0,0,0,0,0,0,0,0,2.6984,2.6988,2.7228,2.7229,2.7231,2.7345,2.7347,2.7349,2.7324,2.7322,2.7319,2.7317,2.7438,2.7444,2.7451,0,0,0,0,0,0,0,0,0,0,0,0,0,2.7094,2.699,2.7228,2.7233,2.7234,2.7345,2.7347,2.7349,2.7325,2.7322,2.7318,2.7315,2.7436,2.7444,2.7451,2.7565,0,0,2.7476,2.7479,0,0,0,0,0,0,0,0,2.7088,2.7103,2.723,2.7232,2.7234,2.7317,2.7306,2.7422,2.7326,2.7291,2.7318,2.7314,2.7402,2.7412,2.7441,2.7571,2.7576,2.7476,2.7481,2.7485,2.7487,0,0,0,0,0,0,0,2.7081,2.7098,2.7274,2.7232,2.7235,2.7229,2.7241,2.7327,2.7363,2.7293,2.7292,2.7306,2.7402,2.7434,2.7444,2.7578,2.7476,2.7483,2.7488,2.7491,2.7806,2.781,0,0,0,0,0,0,2.7071,2.7092,2.7271,2.7278,2.7152,2.7236,2.725,2.7294,2.7362,2.7369,2.7309,2.7305,2.7422,2.7435,2.7448,2.7585,2.7484,2.7492,2.7496,2.7803,2.7807,2.7811,0,0,0,0,0,0,2.7066,2.7087,2.7266,2.7185,2.7207,2.7244,2.7293,2.7298,2.7329,2.7373,2.738,2.7335,2.742,2.7437,2.7536,2.7589,2.7495,2.7503,2.7798,2.7804,2.7809,2.786,0,0,0,0,0,0,2.7059,2.7085,2.7129,2.7186,2.7211,2.7352,2.7297,2.7302,2.7343,2.7338,2.7399,2.7406,2.7419,2.7524,2.7544,2.7598,2.7509,2.7794,2.7801,2.7807,2.7854,2.7867,2.7878,0,0,0,0,0,2.705,2.7139,2.7131,2.7153,2.7266,2.7355,2.7369,2.7381,2.7347,2.7391,2.7419,2.7404,2.758,2.7535,2.7557,2.7614,2.779,2.7799,2.7807,2.7849,2.7864,2.7878,0,0,0,0,0,0,2.7088,2.7147,2.7138,2.7248,2.7297,2.735,2.7406,2.7398,2.7457,2.745,2.7463,2.7477,2.7578,2.7606,2.7554,2.7727,2.7681,2.7693,2.7705,2.772,2.7732,2.7723,2.7515,0,0,0,0,0,2.7109,2.7175,2.7223,2.7316,2.734,2.7369,2.7408,2.7413,2.7464,2.7484,2.752,2.757,2.7637,2.768,2.7744,2.7858,2.7871,2.7909,2.7921,2.793,2.7941,2.8003,2.802,2.7838,2.7838,2.7837,0,0,2.7153,2.7193,2.7235,2.7324,2.7362,2.7431,2.7387,2.7461,2.7512,2.7496,2.7591,2.7619,2.7676,2.7783,2.7832,2.7809,2.7994,2.7941,2.7948,2.7953,2.8013,2.803,2.8045,2.7843,2.7842,2.7841,0,0,2.7269,2.7306,2.7387,2.7425,2.7483,2.7502,2.7521,2.7577,2.7594,2.769,2.7679,2.774,2.7854,2.7895,2.7931,2.8061,2.805,2.8082,2.8144,2.8204,2.8218,2.8231,2.8277,2.8293,2.8093,2.8093,2.8093,0,2.7316,2.7419,2.7429,2.7505,2.7544,2.7532,2.7614,2.7651,2.7727,2.7755,2.7729,2.7872,2.7909,2.8025,2.8057,2.8087,2.8109,2.8075,2.8215,2.8228,2.824,2.8284,2.8301,2.8096,2.8096,2.8096,2.8095,0,2.7474,2.7546,2.7604,2.7677,2.7723,2.7801,2.7824,2.7869,2.787,2.7892,2.7989,2.8034,2.8106,2.8134,2.8136,2.825,2.8234,2.8212,2.8165,2.8261,2.8302,2.8319,2.8101,2.81,2.8099,2.8098,0,0,2.7617,2.7694,2.7715,2.7747,2.781,2.7865,2.7943,2.8013,2.8052,2.8105,2.817,2.8267,2.8246,2.8287,2.8293,2.8346,2.8446,2.8317,2.8319,2.8339,2.8573,2.8589,2.8608,2.8439,2.8442,2.8445,2.8568,0,2.7737,2.7873,2.7885,2.8008,2.8073,2.8062,2.813,2.8176,2.8198,2.8257,2.8282,2.835,2.8318,2.8342,2.8394,2.8423,2.8493,2.8414,2.8499,2.8502,2.8484,2.863,2.8647,2.8762,2.8585,2.8587,2.8589,0,2.7896,2.7952,2.8081,2.8134,2.8162,2.8222,2.8287,2.8344,2.8396,2.8408,2.8453,2.8453,2.8533,2.8483,2.8594,2.854,2.8575,2.8595,2.8599,2.8607,2.8551,2.8641,2.8799,2.8815,2.8615,2.8613,2.8611,0,2.7985,2.8094,2.8185,2.8213,2.8277,2.832,2.8349,2.8397,2.8438,2.8495,2.8522,2.8588,2.8623,2.8674,2.8691,2.8654,2.8801,2.8753,2.8813,2.8813,2.8844,2.8842,2.9009,2.8869,2.8869,2.8868,2.8868,0,2.8118,2.8197,2.8225,2.8281,2.837,2.8382,2.847,2.8496,2.8539,2.86,2.8596,2.8653,2.8673,2.8734,2.8748,2.8836,2.8853,2.8865,2.8868,2.8865,2.8863,2.8888,2.888,2.8873,2.8872,2.8871,2.887,0,2.8232,2.8255,2.8353,2.8405,2.842,2.8483,2.8528,2.8582,2.8603,2.868,2.8699,2.8732,2.8804,2.8826,2.8912,2.8922,2.9025,2.9021,2.9007,2.9007,2.9066,2.9059,2.9254,2.9279,2.9123,2.9125,2.9126,0,2.8315,2.8375,2.8434,2.8474,2.8504,2.8569,2.8611,2.8626,2.8669,2.8733,2.8779,2.8849,2.8906,2.9021,2.9053,2.9119,2.9116,2.9179,2.9126,2.9121,2.9115,2.9111,2.9117,2.9189,2.9191,2.9192,2.9193,0,2.8459,2.8467,2.8527,2.859,2.864,2.8691,2.874,2.8773,2.8796,2.8845,2.8917,2.8961,2.9049,2.9118,2.9185,2.9215,2.9208,2.921,2.9227,2.9224,2.9213,2.9219,2.9034,2.9205,2.9204,2.9203,2.9202,2.9202,2.856,2.8612,2.8661,2.8728,2.8766,2.8812,2.8865,2.8893,2.8953,2.9025,2.903,2.9108,2.9158,2.9247,2.9281,2.9342,2.9324,2.9349,2.9355,2.9361,2.9365,2.9204,2.9354,2.9354,2.9354,2.9354,2.9353,0,2.8702,2.8733,2.8794,2.8863,2.8915,2.8903,2.8957,2.9001,2.907,2.9117,2.9173,2.9256,2.9323,2.936,2.9428,2.947,2.9468,2.9487,2.9483,2.949,2.9378,2.9356,2.9487,2.9487,2.9487,2.9487,2.9487,2.9487,2.8783,2.8871,2.8885,2.8992,2.9023,2.9098,2.913,2.9172,2.9209,2.9302,2.9357,2.9381,2.9424,2.9495,2.9556,2.9565,2.959,2.9611,2.9618,2.9512,2.9498,2.9485,2.9464,2.9616,2.9616,2.9725,2.9726,2.9727]},{"header":{"parameterUnit":"m.s-1","parameterCategory":1,"la1":30.2991,"la2":30.254,"lo1":-89.0895,"lo2":-89.0444,"dy":0.0017,"dx":0.0017,"nx":28,"ny":28,"refTime":"2024-07-12T09:00:00:Z","depth":0,"parameterNumber":3,"parameterNumberName":"V-component_of_WINDS"},"data":[0,0,0,0,0,0,0,0,0,0,0,0,0,0,0,0,0,0,0,0,0,0,0,0,0,0,0,0,0,0,0,0,0,0,0,0,0,0,0,0,0,0,0,0,0,0,0,0,0,0,0,0,0,0,0,0,0,0,-0.3919,-0.3919,0,-0.3945,-0.3946,-0.3946,-0.3964,-0.3964,-0.3964,-0.3965,-0.3992,-0.3993,-0.3993,0,0,0,0,0,0,0,0,0,0,0,0,0,-0.3885,-0.3885,-0.3919,-0.3919,-0.3919,-0.3945,-0.3946,-0.3946,-0.3964,-0.3964,-0.3964,-0.3965,-0.3992,-0.3993,-0.3993,0,0,0,0,0,0,0,0,0,0,0,0,0,-0.3904,-0.3886,-0.3919,-0.3932,-0.3933,-0.3945,-0.3946,-0.3946,-0.3964,-0.3964,-0.3964,-0.3965,-0.3992,-0.3993,-0.3993,-0.3995,0,0,-0.3996,-0.3997,0,0,0,0,0,0,0,0,-0.3903,-0.3906,-0.3929,-0.3931,-0.3932,-0.3952,-0.3944,-0.3962,-0.3964,-0.3952,-0.3965,-0.3965,-0.3978,-0.3981,-0.3985,-0.3996,-0.3997,-0.3996,-0.3997,-0.3997,-0.3998,0,0,0,0,0,0,0,-0.3902,-0.3905,-0.3929,-0.393,-0.3932,-0.3936,-0.3939,-0.3947,-0.3964,-0.3953,-0.3955,-0.3958,-0.3979,-0.3984,-0.3986,-0.3998,-0.3996,-0.3997,-0.3998,-0.3998,-0.4012,-0.4012,0,0,0,0,0,0,-0.3898,-0.3903,-0.3928,-0.393,-0.3918,-0.3937,-0.394,-0.3945,-0.3964,-0.3967,-0.3957,-0.3958,-0.3982,-0.3985,-0.3987,-0.399,-0.3997,-0.3998,-0.3999,-0.4012,-0.4012,-0.4012,0,0,0,0,0,0,-0.3898,-0.39,-0.3927,-0.3917,-0.3921,-0.3937,-0.3943,-0.3946,-0.395,-0.3967,-0.397,-0.3959,-0.3983,-0.3986,-0.3993,-0.3991,-0.3999,-0.3999,-0.4013,-0.4012,-0.4012,-0.3996,0,0,0,0,0,0,-0.3897,-0.39,-0.3901,-0.3917,-0.3921,-0.3933,-0.3943,-0.3946,-0.3952,-0.3953,-0.3969,-0.3972,-0.3983,-0.3991,-0.3994,-0.3993,-0.4,-0.4013,-0.4012,-0.4012,-0.3997,-0.3995,-0.3994,0,0,0,0,0,-0.3895,-0.3895,-0.39,-0.3903,-0.3922,-0.3932,-0.3935,-0.3947,-0.3952,-0.3952,-0.3963,-0.3972,-0.3991,-0.3992,-0.3995,-0.3994,-0.4013,-0.4013,-0.4012,-0.3998,-0.3996,-0.3994,0,0,0,0,0,0,-0.3878,-0.3897,-0.3904,-0.3909,-0.3919,-0.3935,-0.3937,-0.3945,-0.3954,-0.3955,-0.397,-0.3974,-0.398,-0.3988,-0.3988,-0.3997,-0.4003,-0.4003,-0.3991,-0.3989,-0.3988,-0.3986,-0.4001,0,0,0,0,0,-0.3875,-0.3881,-0.3898,-0.3901,-0.3906,-0.392,-0.3925,-0.3934,-0.3945,-0.3949,-0.3961,-0.3971,-0.398,-0.3985,-0.3994,-0.3998,-0.4002,-0.3999,-0.3998,-0.3997,-0.3996,-0.4,-0.3999,-0.4011,-0.4011,-0.4011,0,0,-0.3868,-0.388,-0.3883,-0.3898,-0.3906,-0.3913,-0.3924,-0.393,-0.3935,-0.395,-0.3958,-0.3967,-0.398,-0.3986,-0.3989,-0.3993,-0.3994,-0.3996,-0.3995,-0.3996,-0.3999,-0.3998,-0.3997,-0.4011,-0.4011,-0.4011,0,0,-0.386,-0.3869,-0.3872,-0.3881,-0.3894,-0.3904,-0.3905,-0.3921,-0.3927,-0.3935,-0.3946,-0.3953,-0.3967,-0.3976,-0.3983,-0.3978,-0.3986,-0.398,-0.3973,-0.3976,-0.3975,-0.3974,-0.3973,-0.3972,-0.398,-0.398,-0.398,0,-0.385,-0.386,-0.3873,-0.3879,-0.3885,-0.3899,-0.3903,-0.3911,-0.3926,-0.3931,-0.3935,-0.3953,-0.3963,-0.3971,-0.397,-0.3975,-0.3977,-0.3978,-0.3974,-0.3973,-0.3973,-0.3972,-0.3971,-0.3979,-0.3979,-0.398,-0.398,0,-0.3847,-0.3854,-0.3855,-0.387,-0.3876,-0.3881,-0.3895,-0.3901,-0.3909,-0.3918,-0.3926,-0.3939,-0.395,-0.3953,-0.3961,-0.3963,-0.3965,-0.3971,-0.3978,-0.3971,-0.397,-0.3969,-0.3978,-0.3979,-0.3979,-0.3979,0,0,-0.3828,-0.385,-0.385,-0.3857,-0.3873,-0.3879,-0.3884,-0.3896,-0.39,-0.391,-0.3916,-0.3928,-0.3934,-0.3941,-0.3951,-0.3953,-0.3949,-0.396,-0.396,-0.3957,-0.3952,-0.3947,-0.3946,-0.3955,-0.3955,-0.3955,-0.3951,0,-0.3822,-0.3832,-0.3844,-0.3851,-0.3857,-0.3871,-0.3876,-0.3887,-0.3896,-0.3903,-0.3914,-0.3922,-0.393,-0.3934,-0.3938,-0.3949,-0.3948,-0.3949,-0.396,-0.396,-0.3956,-0.3945,-0.394,-0.3935,-0.395,-0.395,-0.395,0,-0.3815,-0.3825,-0.3832,-0.3848,-0.3851,-0.3855,-0.3867,-0.3873,-0.3886,-0.3893,-0.3901,-0.3911,-0.3918,-0.3924,-0.3935,-0.3935,-0.3941,-0.3947,-0.3947,-0.3948,-0.3955,-0.3946,-0.3934,-0.3933,-0.395,-0.395,-0.395,0,-0.38,-0.3815,-0.3821,-0.3827,-0.3845,-0.3848,-0.3856,-0.3869,-0.3875,-0.3885,-0.3889,-0.39,-0.3906,-0.3915,-0.3928,-0.3931,-0.3937,-0.3944,-0.3943,-0.3943,-0.3943,-0.3943,-0.3932,-0.3947,-0.3947,-0.3947,-0.3947,0,-0.3792,-0.3796,-0.3815,-0.3819,-0.3824,-0.3838,-0.3842,-0.3852,-0.3863,-0.3869,-0.3882,-0.3887,-0.3904,-0.3912,-0.3922,-0.393,-0.3932,-0.3938,-0.3941,-0.3937,-0.3936,-0.394,-0.3941,-0.3947,-0.3947,-0.3947,-0.3947,0,-0.3776,-0.3789,-0.3797,-0.3814,-0.3818,-0.3821,-0.3835,-0.384,-0.385,-0.3858,-0.386,-0.3877,-0.3886,-0.39,-0.3914,-0.3921,-0.3927,-0.3931,-0.3923,-0.3924,-0.3922,-0.3922,-0.3913,-0.3913,-0.3928,-0.3928,-0.3928,0,-0.3769,-0.3773,-0.379,-0.3795,-0.3802,-0.381,-0.3816,-0.3831,-0.3837,-0.3852,-0.3854,-0.3865,-0.3875,-0.389,-0.3903,-0.3914,-0.3919,-0.3915,-0.3921,-0.3917,-0.3919,-0.3918,-0.3919,-0.3913,-0.3913,-0.3913,-0.3913,0,-0.3757,-0.3763,-0.3771,-0.3782,-0.3789,-0.3799,-0.3809,-0.3812,-0.3829,-0.3835,-0.3845,-0.3853,-0.3867,-0.3878,-0.3891,-0.39,-0.3909,-0.3911,-0.3911,-0.3907,-0.3902,-0.3905,-0.3919,-0.3911,-0.3911,-0.3911,-0.3911,-0.3911,-0.3745,-0.3749,-0.3761,-0.3771,-0.378,-0.3789,-0.3794,-0.3805,-0.3813,-0.3826,-0.3834,-0.3844,-0.3857,-0.3875,-0.3884,-0.3892,-0.3896,-0.3896,-0.3896,-0.3896,-0.3895,-0.3901,-0.3894,-0.3894,-0.3895,-0.3895,-0.3895,0,-0.3733,-0.3742,-0.375,-0.3764,-0.3771,-0.3779,-0.3791,-0.3797,-0.3805,-0.3816,-0.3825,-0.3837,-0.3847,-0.3862,-0.3873,-0.3877,-0.3882,-0.388,-0.388,-0.3882,-0.3891,-0.3889,-0.3876,-0.3876,-0.3876,-0.3876,-0.3876,-0.3876,-0.3727,-0.3734,-0.3742,-0.3753,-0.3762,-0.3772,-0.3778,-0.3786,-0.3795,-0.3808,-0.3817,-0.3826,-0.3839,-0.3851,-0.3862,-0.3866,-0.3869,-0.3866,-0.3871,-0.3879,-0.3881,-0.3882,-0.3881,-0.3867,-0.3867,-0.3862,-0.3862,-0.3862]}]]